Location: Breitenfeld
(46.8500°N, 15.6333°E)
Time: 09:15:05
(UTC+00:00)

Cosmos 2218 Rocket - Pass Details

Date: 09 April 2020
Orbit: 957 x 1005 km, 82.9° (Epoch: 01 June)

Event Time Altitude Azimuth Distance (km) Brightness Sun altitude
Rises 19:09:46 0° 354° (N) 3,667 7.6 -15.4°
Reaches altitude 10° 19:12:20 10° 359° (N) 2,722 6.8 -15.7°
Maximum altitude 19:18:28 56° 77° (ENE) 1,150 4.1 -16.6°
Enters shadow 19:22:19 23° 147° (SSE) 1,938 5.0 -17.2°
